Date,TemperatureHighF,TemperatureAvgF,TemperatureLowF,DewpointHighF,DewpointAvgF,DewpointLowF,HumidityHigh,HumidityAvg,HumidityLow,PressureMaxIn,PressureMinIn,WindSpeedMaxMPH,WindSpeedAvgMPH,GustSpeedMaxMPH,PrecipitationSumIn
2013-1-2,15.3,13.1,11.3,13.1,10.9,8.9,91,91,90,30.66,30.61,0,0,0,0.00
2013-1-3,31.1,17.3,4.2,23.1,12.0,1.3,94,80,64,30.61,30.45,0,0,0,0.00
2013-1-4,40.7,30.5,21.7,29.6,23.1,16.0,94,74,57,30.49,30.33,0,0,0,0.03
2013-1-5,29.7,26.4,23.6,26.4,21.5,18.0,92,81,71,30.35,30.28,0,0,0,0.00
2013-1-6,40.4,32.5,23.5,30.5,26.8,20.5,92,80,65,30.31,30.14,0,0,0,0.02
2013-1-7,46.9,39.5,33.0,37.2,32.8,28.5,91,77,64,30.19,30.07,11,1,11,0.00
2013-1-8,48.1,41.1,37.4,38.7,35.6,31.4,89,81,65,30.20,30.00,25,9,25,0.00
2013-1-9,44.4,36.4,25.4,36.2,29.4,21.5,91,76,62,30.00,29.75,32,7,32,0.02
2013-1-10,33.1,26.1,21.9,25.6,19.7,16.7,88,77,56,30.11,29.91,21,2,21,0.01
2013-1-11,28.8,22.0,16.8,18.9,15.3,12.7,87,76,56,30.35,30.09,11,1,11,0.00
2013-1-12,27.7,17.1,10.6,14.2,10.0,6.5,86,75,49,30.49,30.34,18,3,18,0.00
2013-1-13,28.7,18.4,9.8,11.2,7.7,3.7,86,64,37,30.56,30.46,11,1,11,0.00
2013-1-14,41.3,25.6,14.0,24.4,14.1,6.0,77,62,39,30.57,30.49,20,5,20,0.00
2013-1-15,54.1,36.7,24.4,28.4,21.4,17.1,77,56,31,30.68,30.56,13,4,15,0.00
2013-1-16,57.6,43.1,33.0,22.6,19.5,15.2,59,41,20,30.65,30.48,17,5,17,0.00
2013-1-17,55.3,38.9,29.8,26.7,21.4,18.7,65,51,26,30.49,30.38,19,4,19,0.00
2013-1-18,55.4,38.6,29.3,26.7,21.2,18.5,65,51,28,30.41,30.36,21,5,21,0.00
2013-1-19,57.6,40.2,30.4,27.1,20.2,16.5,59,46,23,30.43,30.35,17,3,17,0.00
2013-1-20,49.9,35.3,25.1,21.7,18.6,15.3,67,52,29,30.47,30.37,16,3,16,0.00
2013-1-21,54.9,37.0,26.6,21.6,16.4,11.3,63,45,19,30.38,30.23,26,5,26,0.00
2013-1-22,45.1,33.8,27.2,24.6,19.5,14.5,80,57,37,30.24,30.09,15,2,15,0.00
2013-1-23,50.7,41.8,34.5,37.0,26.9,16.2,88,58,34,30.12,29.86,27,5,27,0.00
2013-1-24,51.3,41.6,32.2,38.8,34.8,30.7,97,78,56,30.19,30.12,21,5,21,0.00
2013-1-25,45.3,42.1,36.6,40.2,38.2,34.8,93,86,76,30.16,29.92,31,7,31,0.01
2013-1-26,41.3,34.1,28.5,35.0,25.9,21.2,95,73,50,30.07,29.92,17,3,17,0.00
2013-1-27,38.4,31.2,26.6,27.2,23.7,18.0,88,75,46,30.15,30.06,14,4,15,0.00
2013-1-28,40.1,34.4,30.6,27.5,26.0,23.6,86,71,54,30.17,30.07,17,3,18,0.00
2013-1-29,47.0,40.1,36.5,33.8,30.5,27.0,81,69,59,30.41,30.13,18,4,18,0.00
2013-1-30,49.9,40.7,35.4,37.1,32.8,28.3,85,74,58,30.45,30.40,14,5,14,0.00
2013-1-31,48.8,38.4,31.0,34.9,31.7,27.8,90,78,55,30.41,30.32,16,3,16,0.00
2013-2-1,49.8,37.5,28.5,35.5,30.0,26.0,94,76,41,30.45,30.33,14,2,14,0.00
2013-2-2,49.9,36.6,28.4,34.1,30.5,26.5,96,80,50,30.46,30.31,16,2,16,0.00
2013-2-3,56.6,43.0,32.3,31.2,27.2,24.0,82,56,32,30.33,30.16,15,4,15,0.00
2013-2-4,53.7,44.9,39.1,30.6,25.0,18.6,62,46,29,30.17,29.93,16,3,16,0.00
2013-2-5,47.4,41.2,34.2,32.0,25.0,18.4,78,54,37,30.05,29.88,25,6,25,0.00
2013-2-6,48.4,38.5,33.4,27.7,25.4,22.2,76,60,36,30.13,29.92,22,5,22,0.00
2013-2-7,40.2,33.8,28.0,28.9,24.9,20.6,88,70,49,30.11,29.89,26,2,26,0.00
2013-2-8,38.9,30.9,24.9,25.7,21.7,16.7,89,70,41,30.24,30.11,12,2,12,0.00
2013-2-9,43.7,31.6,22.7,29.2,23.2,14.4,87,71,55,30.30,30.20,10,2,10,0.00
2013-2-10,44.9,34.0,26.7,28.5,24.2,21.4,93,70,39,30.35,30.28,11,1,11,0.00
2013-2-11,49.8,37.3,28.6,31.8,26.0,21.2,82,65,41,30.37,30.25,16,3,16,0.00
2013-2-12,50.2,38.4,32.4,32.7,29.3,25.3,88,71,42,30.46,30.37,16,4,16,0.00
2013-2-13,47.0,39.3,34.7,34.7,31.4,29.3,87,74,55,30.47,30.39,15,3,15,0.00
2013-2-14,52.9,40.2,31.8,35.8,32.9,29.2,93,77,48,30.56,30.47,14,3,14,0.00
2013-2-15,58.0,42.8,32.9,38.3,34.2,30.1,93,74,43,30.52,30.27,13,2,13,0.00
2013-2-16,52.5,41.5,28.0,33.8,27.2,20.9,83,58,31,30.27,30.11,21,6,21,0.00
2013-2-17,45.8,32.9,25.4,24.8,21.2,11.4,84,65,25,30.23,30.10,11,2,11,0.00
2013-2-18,39.5,32.4,26.6,26.3,23.4,20.3,86,70,51,30.11,29.79,11,2,11,0.00
2013-2-19,40.5,31.6,26.2,24.8,22.5,20.0,84,70,47,30.00,29.71,13,2,13,0.00
2013-2-20,42.5,32.3,25.1,24.7,22.3,18.5,87,68,43,30.10,30.00,9,2,9,0.00
2013-2-21,40.7,32.6,25.5,26.5,24.3,21.4,88,73,49,30.21,30.08,13,4,13,0.00
2013-2-22,43.6,35.0,27.1,34.4,28.8,24.3,94,79,60,30.20,29.89,33,8,33,0.01
2013-2-23,37.4,29.7,23.7,27.4,22.2,18.6,91,74,48,30.43,30.04,15,3,15,0.03
2013-2-24,46.9,33.5,23.1,32.0,24.5,19.3,86,71,47,30.46,30.14,21,6,21,0.00
2013-2-25,41.9,34.6,25.8,32.6,24.4,14.3,92,68,36,30.35,30.07,24,4,24,0.02
2013-2-26,48.2,35.1,24.5,23.8,19.1,12.8,83,56,27,30.41,30.30,18,5,18,0.00
2013-2-27,47.1,39.4,32.1,33.8,24.9,16.5,72,56,44,30.34,30.28,17,7,17,0.00
2013-2-28,53.2,44.2,38.2,40.8,37.4,32.5,86,77,59,30.47,30.26,26,8,26,0.00
2013-3-1,61.8,48.4,40.0,38.8,35.7,30.8,84,63,39,30.49,30.29,18,5,18,0.00
2013-3-2,56.4,47.0,39.4,36.9,33.1,27.5,75,59,37,30.29,30.08,19,5,19,0.00
2013-3-3,44.4,35.6,26.3,32.6,20.8,8.1,86,59,23,30.25,30.06,17,2,17,0.00
2013-3-4,52.2,34.8,22.5,21.9,19.2,16.7,82,56,27,30.26,30.01,11,2,11,0.00
2013-3-5,42.1,34.1,28.7,32.6,26.2,20.0,95,74,57,30.01,29.72,7,1,7,0.02
2013-3-6,41.9,34.2,30.6,35.6,29.4,24.3,97,83,61,30.00,29.56,23,4,23,0.09
2013-3-7,46.0,34.8,27.8,30.7,25.9,22.4,89,71,42,30.09,30.00,12,3,12,0.01
2013-3-8,46.4,34.9,28.2,34.3,28.4,23.0,95,78,51,30.24,30.03,10,1,10,0.02
2013-3-9,54.0,38.9,27.6,26.5,21.7,16.7,75,53,25,30.51,30.24,10,2,10,0.00
2013-3-10,60.7,43.9,31.7,37.3,27.5,14.9,77,56,19,30.50,30.36,16,4,16,0.00
2013-3-11,56.0,46.2,40.2,41.2,38.0,35.1,87,74,53,30.39,30.23,13,3,13,0.00
2013-3-12,64.5,48.4,36.4,39.6,32.3,18.9,90,60,18,30.25,30.13,19,4,19,0.00
2013-3-13,68.5,52.6,43.8,39.2,32.2,20.5,66,47,31,30.19,30.09,15,2,15,0.00
2013-3-14,67.3,53.8,45.9,36.7,28.7,16.2,66,40,17,30.15,30.02,23,6,23,0.00
2013-3-15,59.4,47.7,39.8,38.9,34.5,29.8,82,62,38,30.17,30.10,13,2,13,0.00
2013-3-16,51.4,41.7,32.2,33.6,30.4,25.1,90,65,42,30.13,29.93,29,6,29,0.00
2013-3-17,43.3,33.3,25.6,27.9,22.2,18.6,86,65,40,30.24,30.00,17,3,17,0.00
2013-3-18,54.1,37.6,25.9,27.2,20.0,0.9,85,57,12,30.28,30.18,10,2,10,0.00
2013-3-19,54.4,40.1,31.0,42.3,29.9,21.1,94,69,35,30.21,29.78,17,2,17,0.12
2013-3-20,46.9,41.3,30.6,42.2,34.9,20.0,95,79,51,30.08,29.59,35,9,35,0.06
2013-3-21,44.6,32.5,24.5,25.7,21.6,16.4,83,65,38,30.27,30.08,23,4,23,0.00
2013-3-22,40.2,30.5,24.2,22.9,19.2,13.6,89,65,37,30.39,30.25,21,3,21,0.00
2013-3-23,46.6,32.9,23.4,22.8,19.8,16.4,83,61,36,30.39,30.27,13,2,13,0.00
2013-3-24,48.2,35.9,25.7,27.0,23.6,18.9,81,62,41,30.31,30.16,9,1,9,0.00
2013-3-25,50.0,39.9,29.4,34.3,28.4,24.3,83,64,46,30.17,29.95,11,1,11,0.00
2013-3-26,48.9,41.3,35.8,39.9,36.5,31.7,95,83,66,30.00,29.95,8,1,11,0.01
2013-3-27,55.9,43.4,34.5,44.0,37.8,32.7,96,82,50,30.02,29.91,23,2,23,0.02
2013-3-28,57.4,46.4,39.8,45.5,41.4,38.2,97,84,55,30.13,30.01,12,1,12,0.01
2013-3-29,62.1,48.6,38.1,45.3,41.1,36.8,96,77,48,30.21,30.13,14,2,14,0.00
2013-3-30,70.5,53.1,39.7,45.6,41.2,37.1,93,68,35,30.21,30.04,10,2,10,0.00
2013-3-31,68.2,52.9,39.7,44.3,39.3,35.5,85,62,34,30.04,29.88,10,2,10,0.00
2013-4-1,63.3,51.8,43.7,43.5,40.8,38.1,82,68,44,30.09,29.92,14,3,14,0.00
2013-4-2,63.2,49.3,39.4,42.9,38.7,36.2,89,69,43,30.16,30.08,13,3,13,0.00
2013-4-3,68.2,51.9,38.6,40.3,34.4,26.5,87,57,22,30.14,29.94,16,4,16,0.00
2013-4-4,62.6,52.1,42.7,43.1,38.5,34.5,86,60,42,29.94,29.66,30,5,30,0.00
2013-4-5,56.1,45.4,40.2,43.0,37.6,33.4,89,75,49,29.97,29.84,26,7,26,0.00
2013-4-6,50.3,43.7,38.6,38.8,36.0,29.7,92,75,49,29.99,29.78,28,6,28,0.00
2013-4-7,48.1,40.2,32.6,38.5,31.9,24.3,91,73,48,29.88,29.64,30,6,30,0.00
2013-4-8,47.4,37.3,28.2,29.0,25.8,22.1,84,64,46,30.29,29.88,18,4,18,0.00
2013-4-9,60.9,43.2,28.7,37.5,29.2,19.9,89,62,22,30.38,30.28,13,2,13,0.00
2013-4-10,59.9,48.9,35.7,45.3,37.2,30.4,83,65,37,30.29,30.06,26,6,26,0.00
2013-4-11,57.4,41.3,28.6,31.0,27.7,23.3,91,62,29,30.24,30.14,12,2,14,0.00
2013-4-12,61.2,44.2,30.3,36.0,28.1,11.4,85,59,15,30.16,29.73,27,6,27,0.00
2013-4-13,47.6,39.9,30.3,34.6,24.0,17.8,76,54,33,30.05,29.73,23,5,23,0.00
2013-4-14,44.4,34.1,27.4,31.1,23.9,19.0,91,67,41,30.07,29.91,12,2,12,0.00
2013-4-15,40.9,32.3,28.8,34.1,29.7,26.5,96,90,72,30.18,29.92,15,2,15,0.01
2013-4-16,43.7,34.2,29.6,34.1,29.5,24.9,96,83,55,30.42,30.18,12,3,12,0.00
2013-4-17,52.7,38.4,27.1,28.5,23.6,15.2,85,58,31,30.52,30.42,15,2,15,0.00
2013-4-18,62.0,45.8,33.9,40.3,33.9,26.8,80,65,43,30.45,30.30,14,3,14,0.00
2013-4-19,56.9,48.2,38.4,41.3,37.7,32.5,86,68,44,30.30,30.10,23,6,23,0.00
2013-4-20,58.9,45.9,35.6,35.3,33.0,28.1,88,64,33,30.26,30.19,14,4,14,0.00
2013-4-21,61.8,47.4,36.4,40.6,35.5,31.2,84,65,39,30.21,30.14,16,4,16,0.00
2013-4-22,55.2,43.5,32.8,36.2,27.3,18.6,87,57,26,30.43,30.21,15,3,15,0.00
2013-4-23,64.5,44.7,28.1,21.0,14.9,2.2,64,35,9,30.42,30.14,15,2,15,0.00
2013-4-24,71.3,49.8,31.9,23.3,19.2,14.6,57,33,13,30.30,30.04,11,1,11,0.00
2013-4-25,73.6,56.9,42.0,36.9,28.7,19.6,52,35,23,30.10,29.99,20,4,20,0.00
2013-4-26,78.0,60.0,44.7,38.7,32.4,18.8,67,40,12,30.20,30.10,19,3,19,0.01
2013-4-27,70.3,58.3,45.2,37.7,31.7,24.8,63,39,20,30.20,30.09,23,5,23,0.00
2013-4-28,65.5,52.9,41.1,37.1,31.9,25.1,76,47,23,30.15,30.03,22,3,22,0.00
2013-4-29,58.0,49.1,34.4,41.5,33.8,24.9,82,57,32,30.03,29.92,24,6,24,0.00
2013-4-30,52.9,38.2,25.8,25.5,21.7,17.1,82,55,25,30.44,30.03,18,3,18,0.00
2013-5-1,65.8,44.8,27.6,25.2,21.3,14.4,79,46,15,30.57,30.43,16,2,16,0.00
2013-5-2,78.7,56.2,36.7,28.3,20.3,3.4,66,31,6,30.56,30.24,13,2,13,0.00
2013-5-3,71.3,57.7,44.9,33.2,29.4,23.9,58,36,19,30.26,30.12,14,2,14,0.00
2013-5-4,67.8,56.1,46.0,35.2,31.4,29.0,54,40,27,30.15,29.90,20,4,20,0.00
2013-5-5,73.0,58.4,46.1,37.5,33.1,30.0,55,40,25,29.92,29.74,17,4,17,0.00
2013-5-6,79.0,63.8,49.0,46.6,35.1,30.0,61,36,20,29.82,29.68,17,3,17,0.00
2013-5-7,78.7,62.8,49.4,47.3,43.2,32.6,85,53,20,29.88,29.76,21,4,21,0.00
2013-5-8,79.3,62.0,48.2,47.2,43.1,30.6,80,54,19,30.03,29.88,15,3,15,0.00
2013-5-9,83.5,63.4,51.0,53.9,45.3,37.1,80,56,20,30.08,29.99,22,3,22,0.01
2013-5-10,85.8,66.7,51.9,51.8,45.7,37.7,81,51,19,30.12,30.03,14,3,14,0.02
2013-5-11,87.8,70.4,56.6,53.8,48.3,36.1,75,50,19,30.12,29.94,18,4,18,0.00
2013-5-12,84.5,69.3,59.4,53.9,48.5,42.6,75,51,24,29.99,29.86,19,5,19,0.00
2013-5-13,69.0,58.1,46.1,49.4,42.3,34.7,82,57,38,30.08,29.89,36,6,36,0.00
2013-5-14,70.2,52.4,38.1,40.6,37.5,34.0,88,60,30,30.11,30.01,12,2,12,0.00
2013-5-15,63.6,50.5,41.9,49.3,40.0,34.2,86,69,37,30.07,29.94,16,2,16,0.04
2013-5-16,58.4,48.7,42.6,48.3,42.3,37.6,92,79,51,30.00,29.88,16,2,16,0.05
2013-5-17,58.9,48.5,41.3,43.6,40.0,35.5,94,74,47,30.05,29.92,11,2,11,0.00
2013-5-18,58.9,46.3,35.7,48.3,38.0,32.5,91,74,47,30.26,30.05,13,2,13,0.08
2013-5-19,66.7,50.3,38.4,44.7,37.2,34.5,87,64,32,30.35,30.25,16,3,16,0.00
2013-5-20,79.3,57.6,39.9,43.1,36.4,25.4,83,52,15,30.29,29.83,17,3,17,0.00
2013-5-21,57.7,48.2,34.0,42.0,32.3,22.2,78,55,32,29.88,29.65,28,7,28,0.00
2013-5-22,48.1,39.0,31.8,33.3,28.3,22.2,81,66,51,30.00,29.88,23,8,23,0.00
2013-5-23,57.4,44.0,32.5,33.5,29.8,25.8,82,60,33,30.03,29.96,17,3,17,0.00
2013-5-24,59.8,47.0,37.4,35.3,32.7,27.2,84,60,34,30.04,29.96,16,4,16,0.00
2013-5-25,64.5,48.5,35.0,45.0,36.3,31.0,92,67,33,30.03,29.93,11,2,11,0.01
2013-5-26,61.7,50.7,43.6,45.6,41.8,36.4,97,74,44,30.01,29.92,20,3,20,0.06
2013-5-27,59.9,49.0,43.2,50.2,42.0,36.4,89,77,63,29.98,29.77,24,6,24,0.02
2013-5-28,66.5,53.5,42.8,45.5,38.7,34.6,85,60,32,29.89,29.71,16,4,16,0.02
2013-5-29,60.2,50.4,42.5,46.2,40.0,35.7,95,69,44,29.98,29.63,27,7,27,0.09
2013-5-30,64.8,48.4,35.2,39.9,35.2,31.8,89,64,36,30.20,29.97,18,2,18,0.00
2013-5-31,75.1,53.8,36.0,39.0,34.9,27.4,92,55,21,30.28,30.17,12,2,12,0.00
2013-6-1,78.6,59.9,44.1,46.5,39.9,34.9,85,52,24,30.21,29.94,17,2,17,0.00
2013-6-2,75.2,58.3,46.4,45.8,40.3,26.7,92,57,17,29.98,29.88,14,2,14,0.00
2013-6-3,80.5,60.0,44.0,40.7,35.4,27.9,79,46,18,30.01,29.92,11,2,11,0.00
2013-6-4,82.3,63.6,46.7,40.0,33.3,25.9,55,34,17,30.04,29.95,14,1,14,0.00
2013-6-5,88.8,69.5,52.6,48.7,42.1,37.5,66,40,17,30.00,29.86,12,2,12,0.00
2013-6-6,90.6,70.4,55.5,53.3,47.9,41.4,71,48,20,29.92,29.81,12,1,12,0.00
2013-6-7,85.3,68.9,56.0,52.5,47.5,42.3,79,50,23,29.98,29.88,20,3,20,0.00
2013-6-8,90.1,69.6,52.8,49.2,41.6,22.5,80,44,12,29.99,29.90,15,2,15,0.00
2013-6-9,86.0,67.2,54.4,47.7,41.2,30.7,75,43,14,29.93,29.75,17,2,17,0.00
2013-6-10,81.2,60.9,46.2,38.8,35.0,24.7,68,42,17,29.82,29.69,13,2,13,0.00
2013-6-11,66.3,52.6,42.5,39.9,36.8,33.5,79,57,32,30.06,29.80,16,2,16,0.00
2013-6-12,66.6,50.3,37.0,39.0,34.9,31.3,82,58,31,30.11,30.04,17,2,17,0.00
2013-6-13,59.1,48.0,39.5,47.0,36.8,32.2,93,66,45,30.25,30.09,16,3,16,0.14
2013-6-14,76.7,55.9,38.0,40.2,34.5,27.6,87,52,17,30.25,29.98,12,2,12,0.00
2013-6-15,82.3,63.0,45.4,47.8,39.1,27.3,75,46,14,29.98,29.80,18,2,18,0.00
2013-6-16,80.9,63.4,52.0,61.0,46.3,40.5,83,56,26,30.01,29.87,15,1,15,0.16
2013-6-17,78.2,62.1,49.7,49.8,45.7,41.3,85,59,29,30.01,29.81,19,3,19,0.00
2013-6-18,62.8,53.3,46.9,49.6,43.5,36.4,87,70,44,29.90,29.80,14,2,14,0.03
2013-6-19,61.4,49.0,40.9,47.5,40.1,36.2,93,73,44,30.06,29.86,9,1,12,0.10
2013-6-20,64.5,49.7,37.6,41.3,37.0,34.3,91,64,36,30.11,30.02,13,2,15,0.00
2013-6-21,62.4,51.8,43.3,43.5,40.4,37.3,87,66,44,30.13,30.08,11,2,11,0.00
2013-6-22,78.8,60.2,42.8,46.1,41.8,37.7,85,55,25,30.12,29.84,11,2,11,0.00
2013-6-23,62.4,57.7,53.9,56.4,51.7,42.7,97,81,56,29.84,29.61,12,1,12,0.26
2013-6-24,58.0,52.6,48.1,53.7,49.8,46.3,98,90,78,29.72,29.60,11,2,11,0.12
2013-6-25,64.8,56.6,51.2,55.2,48.9,46.1,92,76,59,29.85,29.70,21,5,21,0.04
2013-6-26,67.8,58.9,52.6,59.2,52.7,47.7,90,80,65,30.04,29.85,12,2,12,0.03
2013-6-27,85.2,67.5,50.8,58.1,53.2,49.2,97,65,35,30.11,30.02,15,2,15,0.00
2013-6-28,93.0,73.7,56.3,59.8,55.8,51.7,92,59,26,30.11,29.92,14,2,14,0.00
2013-6-29,89.7,75.7,65.4,60.1,56.2,53.1,73,53,32,29.97,29.85,13,2,13,0.00
2013-6-30,96.5,77.6,60.8,59.5,54.8,50.5,76,49,24,29.92,29.75,12,2,12,0.00
2013-7-1,98.8,82.1,70.1,60.6,56.5,52.7,61,44,23,29.88,29.77,13,2,13,0.00
2013-7-2,101.2,82.6,67.8,62.5,56.3,43.8,75,45,17,29.90,29.81,15,2,15,0.00
2013-7-3,92.7,76.2,64.1,62.7,55.3,42.5,82,52,27,29.91,29.81,14,2,14,0.00
2013-7-4,85.3,69.1,57.6,47.8,42.2,30.8,64,41,17,29.90,29.80,15,2,15,0.00
2013-7-5,82.0,63.9,49.3,46.3,39.3,29.7,79,46,18,29.86,29.78,12,2,12,0.00
2013-7-6,85.8,65.7,46.7,46.7,37.3,27.2,77,40,15,29.86,29.73,13,2,13,0.00
2013-7-7,90.5,70.0,54.4,51.2,45.4,39.5,72,45,18,29.81,29.69,14,1,14,0.00
2013-7-8,90.1,70.3,53.5,49.6,41.4,33.7,74,41,14,29.97,29.81,12,2,12,0.00
2013-7-9,95.5,75.6,58.0,52.5,45.7,31.9,61,38,11,29.98,29.83,14,2,14,0.00
2013-7-10,89.5,74.9,62.3,53.2,47.5,37.5,65,41,19,29.91,29.70,15,2,15,0.00
2013-7-11,83.8,64.8,52.9,49.1,45.0,40.2,82,52,22,29.83,29.77,9,1,9,0.00
2013-7-12,82.7,69.1,0.0,42.2,36.5,0.0,52,32,14,29.93,29.80,16,3,16,0.00
2013-7-13,82.3,62.8,45.7,40.0,35.3,25.8,77,41,16,30.06,29.93,12,1,12,0.00
2013-7-14,92.5,72.3,53.6,47.6,35.6,25.6,49,28,14,30.05,29.84,15,2,15,0.00
2013-7-15,89.3,71.7,56.2,47.3,39.9,34.9,63,35,15,29.89,29.72,13,2,13,0.00
2013-7-16,86.9,71.6,62.7,48.5,38.7,31.9,42,31,20,29.86,29.72,13,3,13,0.00
2013-7-17,90.0,73.5,59.8,46.1,40.2,32.5,60,33,14,30.02,29.85,15,4,15,0.00
2013-7-18,95.2,74.8,57.1,50.5,41.1,31.5,53,34,12,30.04,29.89,13,2,13,0.00
2013-7-19,95.3,76.4,58.1,50.6,34.7,23.7,51,26,9,29.97,29.83,12,2,12,0.00
2013-7-20,96.2,77.3,61.8,51.0,38.2,20.1,60,29,7,29.88,29.74,14,2,14,0.00
2013-7-21,96.3,75.1,57.9,49.4,36.1,13.0,72,32,5,29.79,29.72,16,3,16,0.00
2013-7-22,96.1,79.3,57.1,46.4,35.6,20.7,59,25,9,29.87,29.79,13,2,13,0.00
2013-7-23,96.3,77.6,62.6,48.8,40.3,30.8,58,30,10,29.89,29.78,14,2,14,0.00
2013-7-24,94.4,77.3,64.7,47.9,39.6,23.5,50,29,10,29.89,29.83,10,1,11,0.00
2013-7-25,97.1,78.5,61.3,49.0,39.7,25.4,59,29,10,29.94,29.85,18,2,18,0.00
2013-7-26,96.4,79.1,65.8,43.8,35.6,24.1,37,22,9,29.96,29.86,17,2,17,0.00
2013-7-27,86.8,71.1,59.0,42.4,36.4,24.6,53,31,12,29.96,29.82,15,2,15,0.00
2013-7-28,84.3,67.0,52.3,44.2,37.0,25.1,60,38,15,29.86,29.79,12,3,14,0.00
2013-7-29,85.8,67.6,52.1,47.4,41.3,33.0,70,43,16,29.92,29.78,12,2,12,0.00
2013-7-30,87.3,69.2,52.8,46.8,38.1,24.3,68,38,11,30.01,29.92,13,2,13,0.00
2013-7-31,83.5,68.1,60.8,53.5,44.8,33.4,69,46,17,30.00,29.84,26,1,26,0.04
2013-8-1,72.3,60.1,51.0,60.3,49.8,42.8,97,71,39,30.00,29.86,15,2,15,0.22
2013-8-2,77.8,59.9,46.9,49.1,43.7,36.4,86,60,24,30.06,29.98,12,3,12,0.00
2013-8-3,84.0,66.4,50.1,48.5,41.8,32.4,82,48,17,30.04,29.91,12,2,12,0.00
2013-8-4,90.7,71.9,56.3,49.2,45.6,40.1,70,43,19,29.97,29.80,12,2,12,0.00
2013-8-5,89.0,72.8,60.0,52.3,45.8,34.5,64,41,15,29.90,29.80,16,2,16,0.00
2013-8-6,91.8,73.7,56.5,51.2,44.7,36.6,71,41,15,29.90,29.79,16,3,16,0.00
2013-8-7,84.7,71.0,61.4,47.5,42.8,35.3,53,38,20,29.91,29.82,25,2,25,0.00
2013-8-8,83.3,70.4,56.8,48.1,43.8,38.2,64,40,21,29.89,29.80,13,2,13,0.00
2013-8-9,84.5,67.4,56.5,56.6,49.3,43.8,79,55,25,29.88,29.73,28,3,28,0.01
2013-8-10,72.3,59.1,53.0,55.5,48.9,45.0,81,70,44,29.99,29.85,10,2,10,0.06
2013-8-11,80.8,64.0,51.2,52.2,47.9,41.4,84,60,28,30.00,29.89,15,4,15,0.00
2013-8-12,84.6,66.3,53.2,55.6,49.8,44.7,84,59,27,29.97,29.86,14,2,14,0.01
2013-8-13,88.4,69.5,53.9,49.8,46.8,41.3,82,49,20,30.00,29.86,15,2,15,0.01
2013-8-14,90.3,72.9,60.3,51.2,46.2,36.9,58,41,16,29.91,29.76,14,2,14,0.00
2013-8-15,81.4,66.0,57.8,54.5,49.7,46.8,73,57,33,29.89,29.80,9,2,12,0.00
2013-8-16,84.0,70.0,59.6,58.4,54.1,49.7,79,59,32,29.94,29.85,18,2,18,0.00
2013-8-17,83.9,69.1,58.6,57.2,52.9,49.5,85,59,32,29.98,29.86,15,2,15,0.00
2013-8-18,89.3,70.0,54.7,52.0,48.3,36.7,81,52,21,30.02,29.92,14,2,14,0.00
2013-8-19,87.4,67.2,57.2,51.0,49.1,42.7,70,55,21,29.99,29.86,12,2,17,0.00
2013-8-20,86.0,68.4,52.7,49.5,37.5,17.1,84,42,8,29.98,29.89,11,1,11,0.00
2013-8-21,84.0,70.2,58.3,44.6,37.1,29.1,50,31,17,29.95,29.84,11,1,11,0.00
2013-8-22,79.9,67.0,59.7,55.8,46.8,35.9,77,50,33,29.89,29.80,27,3,27,0.03
2013-8-23,81.0,67.9,54.2,51.4,49.4,45.6,82,55,30,29.85,29.74,17,4,17,0.00
2013-8-24,77.7,63.2,53.4,53.1,49.8,45.1,85,64,33,29.83,29.70,10,1,10,0.00
2013-8-25,71.5,59.2,51.9,59.7,52.0,48.8,92,78,51,29.90,29.74,30,2,30,0.08
2013-8-26,76.0,61.5,51.7,52.5,48.4,44.4,89,65,34,29.92,29.87,16,4,16,0.00
2013-8-27,87.0,65.8,50.5,53.2,47.2,36.8,84,57,17,29.92,29.72,17,2,17,0.00
2013-8-28,84.5,68.4,54.9,54.2,48.9,39.8,83,55,23,29.83,29.74,23,4,23,0.00
2013-8-29,82.2,68.8,59.8,54.1,50.0,44.0,76,54,28,29.98,29.79,14,4,18,0.00
2013-8-30,82.8,67.3,54.2,55.2,51.2,44.3,85,60,28,30.06,29.92,17,2,17,0.00
2013-8-31,88.0,69.5,53.8,54.1,50.7,46.5,89,57,26,29.98,29.77,12,1,12,0.00
2013-9-1,68.5,63.8,60.1,49.0,47.6,46.8,62,56,49,29.80,29.77,6,0,8,0.00
2013-9-2,86.3,69.3,55.2,53.4,48.6,34.3,81,54,16,29.82,29.69,17,3,17,0.00
2013-9-3,83.3,64.8,53.1,53.2,48.6,33.6,90,61,18,29.92,29.81,17,4,17,0.00
2013-9-4,84.4,65.0,53.2,50.5,47.2,32.6,83,57,17,29.93,29.84,18,3,18,0.00
2013-9-5,72.2,58.7,51.7,52.4,48.5,41.1,84,70,41,30.00,29.80,31,3,31,0.02
2013-9-6,70.6,58.4,49.3,50.7,47.6,44.4,90,69,46,30.10,30.00,15,4,16,0.01
2013-9-7,50.9,49.3,48.5,46.7,46.0,45.1,90,88,84,30.09,30.04,11,0,11,0.00
2013-9-8,76.2,66.8,51.4,52.5,48.2,43.3,89,53,32,30.01,29.97,13,2,13,0.00
2013-9-9,84.0,67.1,53.6,48.8,43.8,32.2,73,47,19,30.00,29.87,13,2,13,0.00
2013-9-10,87.0,70.2,56.8,50.2,45.7,41.2,69,45,21,29.91,29.81,11,1,11,0.00
2013-9-11,89.2,72.1,57.6,51.5,46.3,41.5,69,43,19,29.94,29.85,10,1,10,0.00
2013-9-12,85.3,70.2,62.1,50.1,45.8,41.1,58,43,27,29.91,29.80,7,1,7,0.00
2013-9-13,81.2,72.5,62.2,53.1,43.5,35.6,61,36,23,29.82,29.70,7,1,9,0.00
2013-9-14,89.2,72.6,60.8,51.8,47.9,43.2,65,44,21,29.75,29.63,10,2,10,0.00
2013-9-15,89.3,70.4,57.1,50.9,44.5,27.7,67,44,11,29.72,29.51,21,4,21,0.00
2013-9-16,71.5,58.8,50.1,48.6,45.2,42.3,80,62,40,29.84,29.72,14,3,14,0.00
2013-9-17,57.5,51.0,44.0,48.4,43.8,39.0,89,77,61,29.97,29.75,15,1,17,0.02
2013-9-18,67.1,52.3,43.6,42.0,38.2,34.0,86,62,31,30.09,29.97,10,1,10,0.00
2013-9-19,81.5,59.1,43.2,40.7,35.5,28.2,76,47,15,30.05,29.80,12,1,12,0.00
2013-9-20,78.0,58.6,44.7,46.8,37.9,28.6,85,50,18,29.80,29.53,18,4,18,0.00
2013-9-21,62.7,52.8,45.0,45.7,41.9,39.4,84,68,44,29.75,29.61,18,4,18,0.00
2013-9-22,59.3,50.3,44.0,47.7,42.0,38.9,86,74,53,29.85,29.72,26,8,26,0.00
2013-9-23,65.1,54.7,48.9,45.3,41.3,36.8,71,61,42,29.95,29.83,24,5,24,0.00
2013-9-24,52.8,48.5,44.6,46.1,42.0,37.4,92,78,62,29.92,29.83,19,2,21,0.17
2013-9-25,51.6,44.6,37.8,38.9,35.8,33.0,92,72,52,30.00,29.81,14,2,14,0.01
2013-9-26,54.5,43.8,34.3,39.0,34.2,30.5,88,70,48,30.18,30.00,12,1,12,0.00
2013-9-27,63.2,47.2,35.2,44.7,37.2,28.4,89,71,28,30.19,30.01,20,6,20,0.00
2013-9-28,63.1,53.3,47.4,50.8,46.3,42.9,95,78,54,30.02,29.55,36,10,36,0.30
2013-9-29,49.8,45.8,41.3,48.6,42.7,36.7,96,89,70,29.73,29.52,28,7,28,0.56
2013-9-30,51.7,45.0,37.9,48.2,37.4,32.5,95,75,59,30.02,29.58,32,6,32,0.04
2013-10-1,53.5,43.5,35.3,41.9,34.6,28.4,84,71,44,30.20,30.00,19,5,19,0.00
2013-10-2,49.9,38.7,30.0,35.5,31.9,27.1,91,78,47,30.20,30.08,12,2,12,0.00
2013-10-3,52.3,39.7,32.0,37.3,32.8,29.4,94,78,51,30.47,30.17,9,1,9,0.00
2013-10-4,59.7,44.7,34.2,35.3,32.0,25.9,88,65,29,30.55,30.43,9,1,9,0.00
2013-10-5,73.0,51.8,36.1,37.9,31.6,25.2,74,51,17,30.43,30.22,16,3,16,0.00
2013-10-6,74.3,56.5,42.0,38.9,32.0,26.9,60,42,21,30.22,29.96,19,4,19,0.00
2013-10-7,55.6,49.2,37.1,39.5,32.4,24.3,83,53,38,30.07,29.90,16,5,22,0.00
2013-10-8,49.4,41.4,35.9,40.7,35.1,31.0,94,79,55,30.09,29.94,12,2,12,0.03
2013-10-9,43.5,38.5,35.5,36.6,34.9,33.1,95,87,74,30.09,30.00,12,2,12,0.01
2013-10-10,57.0,44.0,35.3,37.9,33.8,31.2,88,69,44,30.07,29.96,15,2,15,0.00
2013-10-11,53.1,42.6,33.9,37.7,34.8,31.1,90,75,52,30.13,30.07,13,3,13,0.00
2013-10-12,48.2,40.9,35.7,40.4,36.0,32.6,94,83,65,30.17,30.05,7,1,7,0.01
2013-10-13,50.5,42.7,36.6,39.9,36.9,33.7,95,81,55,30.33,30.16,7,1,7,0.00
2013-10-14,53.7,42.3,33.7,37.7,33.6,29.6,94,74,46,30.43,30.33,11,1,11,0.00
2013-10-15,60.8,44.0,30.9,34.4,30.5,26.7,87,62,32,30.42,30.20,10,1,10,0.00
2013-10-16,63.7,47.9,36.5,33.1,29.2,25.6,73,50,28,30.20,30.11,16,3,16,0.00
2013-10-17,60.0,46.2,36.0,37.8,34.0,32.0,88,65,36,30.28,30.18,8,1,8,0.00
2013-10-18,62.5,47.0,36.1,39.5,35.8,32.1,88,67,39,30.29,30.19,7,0,7,0.00
2013-10-19,73.1,53.6,39.1,38.5,33.6,25.2,79,52,18,30.20,30.09,14,4,17,0.00
2013-10-20,68.5,53.3,41.9,36.2,33.5,28.9,65,49,27,30.15,30.09,9,0,9,0.00
2013-10-21,49.9,48.0,46.5,35.7,34.9,33.7,64,60,55,30.16,30.14,8,1,8,0.00
2013-10-22,66.7,51.3,41.3,41.0,37.6,34.4,80,62,35,30.15,30.08,7,1,7,0.00
2013-10-23,66.7,53.9,42.9,43.4,39.2,35.6,81,60,37,30.08,30.02,7,1,11,0.00
2013-10-24,66.7,51.2,42.2,43.9,40.2,36.5,90,69,38,30.12,30.02,13,1,13,0.00
2013-10-25,70.7,54.0,44.2,41.8,36.9,30.1,82,56,23,30.23,30.11,13,2,13,0.00
2013-10-26,67.5,51.0,41.2,41.1,36.3,32.1,84,59,31,30.24,30.08,16,3,16,0.00
2013-10-27,51.2,40.8,36.7,43.5,37.0,28.5,97,87,47,30.10,29.73,21,4,21,0.38
2013-10-28,39.5,33.9,30.9,38.8,29.5,22.4,98,84,65,30.00,29.78,21,5,21,0.05
2013-10-29,45.0,35.1,28.1,28.8,23.8,19.8,76,64,47,30.11,30.00,7,1,7,0.02
2013-10-30,55.7,42.2,32.8,36.6,31.8,26.6,86,69,37,30.20,30.10,15,4,15,0.00
2013-10-31,62.4,49.1,42.0,48.4,41.5,34.8,89,75,55,30.25,30.14,12,3,15,0.00
2013-11-1,58.7,46.5,36.7,45.2,40.6,35.1,96,81,57,30.26,29.94,17,4,17,0.00
2013-11-2,49.7,42.7,32.1,42.3,34.6,25.4,92,73,46,30.05,29.75,24,7,24,0.01
2013-11-3,43.6,35.5,30.1,30.7,28.4,24.4,90,76,48,30.16,30.01,14,2,14,0.00
2013-11-4,48.3,39.3,33.4,34.0,31.0,28.1,85,73,47,30.20,30.11,18,3,18,0.00
2013-11-5,51.2,43.9,38.6,43.0,38.8,32.7,90,82,70,30.25,30.13,20,7,20,0.00
2013-11-6,55.9,49.4,43.8,47.1,44.5,41.6,92,83,70,30.28,30.11,15,4,15,0.00
2013-11-7,50.5,43.2,35.9,45.5,37.0,28.7,94,79,62,30.11,29.88,26,6,26,0.13
2013-11-8,45.7,38.7,32.9,35.1,32.0,30.0,91,77,61,30.21,30.10,14,2,14,0.00
2013-11-9,49.9,39.5,31.4,38.4,33.0,28.6,92,78,52,30.16,30.10,19,2,19,0.00
2013-11-10,62.4,47.0,37.8,43.5,38.4,35.1,94,74,39,30.16,30.09,18,2,18,0.00
2013-11-11,41.2,38.2,36.6,38.6,36.6,35.2,97,94,87,30.29,30.16,4,0,4,0.01
2013-11-12,57.3,46.1,36.4,46.8,40.1,34.8,96,81,58,30.40,30.25,18,3,20,0.01
2013-11-13,56.0,43.3,35.3,41.4,35.2,28.6,97,76,36,30.45,30.26,11,1,11,0.00
2013-11-14,46.4,37.8,31.2,31.8,27.8,24.0,87,68,45,30.26,30.07,13,2,13,0.00
2013-11-15,43.6,35.6,30.1,30.8,27.7,24.9,87,73,56,30.08,29.59,27,5,27,0.00
2013-11-16,45.9,39.7,35.5,31.9,29.5,26.7,80,67,50,29.84,29.51,27,6,27,0.00
2013-11-17,47.2,39.7,34.7,33.8,30.6,28.2,81,70,54,30.05,29.84,22,8,22,0.00
2013-11-18,49.9,44.0,40.4,38.3,33.7,29.8,89,68,51,30.02,29.79,32,9,32,0.00
2013-11-19,49.1,43.3,39.4,45.0,39.8,36.3,93,87,78,29.85,29.75,28,9,28,0.02
2013-11-20,41.2,30.0,20.2,38.9,19.6,-1.2,93,67,38,30.45,29.84,13,3,13,0.00
2013-11-21,31.1,21.8,16.6,7.5,3.3,-1.7,65,45,31,30.79,30.45,6,1,9,0.00
2013-11-22,34.2,23.0,16.3,13.3,10.2,6.5,76,59,38,30.82,30.70,13,1,13,0.00
2013-11-23,37.0,25.7,15.6,18.5,15.7,11.3,85,67,46,30.71,30.43,5,0,5,0.00
2013-11-24,55.7,35.5,23.8,21.9,19.2,14.9,75,55,20,30.43,30.32,13,3,19,0.00
2013-11-25,48.5,36.0,29.4,24.3,21.4,18.2,72,56,37,30.43,30.36,14,2,14,0.00
2013-11-26,50.4,36.2,29.3,25.9,22.5,20.5,71,59,34,30.38,30.20,7,1,11,0.00
2013-11-27,44.0,36.4,31.9,28.2,25.1,22.3,73,64,51,30.20,30.09,7,0,7,0.00
2013-11-28,51.5,39.7,28.4,31.3,27.9,23.6,85,64,43,30.27,30.18,13,1,13,0.00
2013-11-29,55.3,43.5,33.3,32.0,27.7,25.0,72,55,33,30.33,30.25,15,3,15,0.00
2013-11-30,55.2,45.7,40.0,38.7,36.0,32.0,82,69,52,30.36,30.27,13,2,13,0.00
2013-12-1,54.2,50.1,45.4,45.0,40.8,37.4,87,71,58,30.16,29.82,38,12,38,0.00
2013-12-2,48.6,36.1,25.5,39.3,30.4,19.3,95,80,59,29.97,29.75,29,4,29,0.11
2013-12-3,26.1,20.9,14.1,22.9,16.0,7.2,91,81,68,30.32,29.96,15,2,15,0.00
2013-12-4,19.9,13.2,7.2,8.0,4.8,2.8,83,69,55,30.43,30.31,10,1,10,0.00
2013-12-5,25.2,12.5,2.8,11.9,5.8,-1.4,84,75,51,30.43,30.30,15,2,15,0.00
2013-12-6,11.8,9.9,8.1,8.2,6.9,5.2,90,88,84,30.31,30.11,11,1,14,0.00
2013-12-7,8.1,3.3,-2.4,5.3,-0.8,-6.5,88,83,72,30.57,30.17,18,4,18,0.00
2013-12-8,22.1,7.7,-2.4,14.3,2.1,-6.8,86,78,58,30.76,30.57,17,4,17,0.00
2013-12-9,33.2,20.5,8.0,23.2,12.8,2.6,85,72,58,30.76,30.54,24,7,24,0.00
2013-12-10,39.4,29.5,23.3,27.2,21.8,18.3,85,73,54,30.55,30.42,18,2,18,0.05
2013-12-11,42.7,32.0,21.6,29.9,24.9,18.7,90,76,56,30.46,30.32,19,6,19,0.07
2013-12-12,44.0,35.9,25.8,31.6,25.8,20.3,87,67,49,30.32,30.17,28,9,28,0.05
2013-12-13,47.8,37.5,33.7,36.3,32.4,30.5,89,82,62,30.48,30.24,18,4,18,0.02
2013-12-14,47.1,40.7,33.0,33.0,30.6,25.1,89,69,47,30.48,30.42,22,8,26,0.00
2013-12-15,55.3,44.7,38.6,39.6,29.3,19.2,84,57,28,30.44,30.34,17,4,18,0.00
2013-12-16,55.0,42.4,34.7,33.3,27.6,23.2,83,57,31,30.44,30.32,18,5,18,0.00
2013-12-17,58.7,45.8,38.5,31.4,25.7,22.2,60,46,30,30.32,30.08,23,6,23,0.00
2013-12-18,42.3,38.0,29.9,33.3,29.0,24.5,94,71,51,30.09,29.91,13,1,13,0.00
2013-12-19,31.4,25.2,20.9,27.5,17.0,12.0,90,71,50,30.30,30.01,13,2,13,0.00
2013-12-20,46.2,34.3,22.5,38.3,26.0,10.4,83,71,48,30.24,29.89,24,6,24,0.07
2013-12-21,50.7,42.1,37.4,36.0,33.3,30.0,84,72,47,30.18,29.90,20,3,20,0.00
2013-12-22,54.1,44.8,39.8,40.0,35.6,31.5,82,71,49,30.33,30.16,18,4,18,0.00
2013-12-23,55.0,45.2,38.6,41.1,33.5,27.3,76,64,51,30.45,30.23,26,6,26,0.00
2013-12-24,47.9,36.0,28.8,32.6,28.5,24.7,91,75,45,30.55,30.46,15,3,15,0.00
2013-12-25,35.7,33.7,32.3,26.7,25.4,24.0,77,71,64,30.53,30.48,21,9,21,0.00
2013-12-26,60.2,47.5,37.4,31.7,25.9,21.0,59,44,28,30.37,30.24,21,5,21,0.00
2013-12-27,52.4,43.2,37.1,28.2,23.9,18.8,65,47,33,30.29,30.13,19,6,23,0.00
2013-12-28,45.9,35.4,28.8,28.7,21.3,15.8,79,58,30,30.51,30.28,6,1,7,0.00
2013-12-29,49.5,37.3,27.9,25.5,18.7,13.7,77,48,25,30.49,30.32,18,5,18,0.00
2013-12-30,46.4,41.7,35.6,27.8,21.8,16.0,60,45,30,30.33,30.19,20,6,20,0.00
2013-12-31,51.8,45.1,40.4,27.6,23.2,18.9,58,42,30,30.32,30.21,15,4,15,0.00
2014-1-1,52.5,39.8,32.4,35.3,30.5,25.3,82,70,50,30.38,30.30,8,2,13,0.00
2014-1-2,59.2,45.0,33.8,36.0,30.1,27.5,78,58,37,30.32,30.04,22,7,22,0.00